• In Denmark
  • List of Countries
  • For 7 days
  • Water Temperature
  • Satellite Maps
  • Weather Map
  • Weather Widgets
  • user-avatar
    Login

    Hourly Weather Darwin

    Today, 20 February, Tuesday

    Time Temperature Precipitation Wind Pressure Humidity
    00:00 +28°C° 0.2 mm 3 mps 756 mmHg 85%
    01:00 +28°C° 0.3 mm 3 mps 756 mmHg 86%
    02:00 +28°C° 0.3 mm 3 mps 756 mmHg 87%
    03:00 +28°C° 0 mm 1 mps 756 mmHg 88%
    04:00 +28°C° 0.6 mm 1 mps 756 mmHg 89%
    05:00 +27°C° 0.6 mm 1 mps 756 mmHg 90%
    06:00 +27°C° 0.6 mm 1 mps 756 mmHg 91%
    07:00 +28°C° 0.4 mm 1 mps 756 mmHg 86%
    08:00 +30°C° 0.4 mm 1 mps 756 mmHg 82%
    09:00 +31°C° 0 mm 2 mps 757 mmHg 79%
    10:00 +32°C° 0.1 mm 2 mps 757 mmHg 75%
    11:00 +34°C° 0.1 mm 3 mps 756 mmHg 70%
    12:00 +34°C° 0.1 mm 3 mps 756 mmHg 66%
    13:00 +34°C° 0.7 mm 4 mps 755 mmHg 69%
    14:00 +33°C° 0.7 mm 4 mps 755 mmHg 72%
    15:00 +33°C° 0.7 mm 4 mps 755 mmHg 74%
    16:00 +32°C° 0.4 mm 4 mps 755 mmHg 78%
    17:00 +30°C° 0.4 mm 4 mps 755 mmHg 82%
    18:00 +30°C° 0.4 mm 4 mps 755 mmHg 85%
    19:00 +29°C° 0.1 mm 3 mps 755 mmHg 87%
    20:00 +29°C° 0.1 mm 3 mps 755 mmHg 88%
    21:00 +28°C° 0.1 mm 3 mps 755 mmHg 90%
    22:00 +28°C° 0.1 mm 3 mps 755 mmHg 90%
    23:00 +28°C° 0.1 mm 2 mps 755 mmHg 90%

    Tomorrow, 21 February, Wednesday

    Time Temperature Precipitation Wind Pressure Humidity
    00:00 +27°C° 0.1 mm 2 mps 755 mmHg 90%
    01:00 +27°C° 0 mm 2 mps 755 mmHg 89%
    02:00 +27°C° 0 mm 2 mps 754 mmHg 89%
    03:00 +27°C° 0 mm 2 mps 754 mmHg 89%
    04:00 +27°C° 0 mm 2 mps 754 mmHg 89%
    05:00 +27°C° 0 mm 2 mps 754 mmHg 89%
    06:00 +27°C° 0 mm 2 mps 754 mmHg 89%
    07:00 +28°C° 0.1 mm 2 mps 754 mmHg 85%
    08:00 +29°C° 0.1 mm 2 mps 755 mmHg 81%
    09:00 +31°C° 0.1 mm 2 mps 755 mmHg 77%
    10:00 +32°C° 0.1 mm 2 mps 755 mmHg 71%
    11:00 +34°C° 0.1 mm 3 mps 754 mmHg 66%
    12:00 +35°C° 0.1 mm 3 mps 754 mmHg 61%
    13:00 +35°C° 0.4 mm 4 mps 754 mmHg 63%
    14:00 +35°C° 0.4 mm 4 mps 753 mmHg 64%
    15:00 +35°C° 0.4 mm 5 mps 752 mmHg 66%
    16:00 +34°C° 0.2 mm 4 mps 753 mmHg 70%
    17:00 +33°C° 0.2 mm 4 mps 753 mmHg 75%
    18:00 +32°C° 0.2 mm 4 mps 753 mmHg 79%
    19:00 +30°C° 0 mm 4 mps 753 mmHg 80%
    20:00 +30°C° 0 mm 3 mps 754 mmHg 81%
    21:00 +29°C° 0 mm 3 mps 754 mmHg 83%
    22:00 +29°C° 0 mm 3 mps 754 mmHg 83%
    23:00 +28°C° 0 mm 3 mps 754 mmHg 84%

    Day after tomorrow, 22 February, Thursday

    Time Temperature Precipitation Wind Pressure Humidity
    00:00 +28°C° 0 mm 3 mps 754 mmHg 85%
    01:00 +28°C° 0 mm 3 mps 754 mmHg 86%
    02:00 +28°C° 0 mm 3 mps 753 mmHg 87%
    03:00 +28°C° 0 mm 4 mps 753 mmHg 88%
    04:00 +28°C° 0 mm 3 mps 753 mmHg 88%
    05:00 +28°C° 0 mm 3 mps 753 mmHg 89%
    06:00 +28°C° 0 mm 3 mps 754 mmHg 89%
    07:00 +29°C° 0 mm 3 mps 754 mmHg 85%
    08:00 +31°C° 0 mm 3 mps 755 mmHg 80%
    09:00 +33°C° 0 mm 3 mps 755 mmHg 76%
    10:00 +34°C° 0 mm 3 mps 755 mmHg 71%
    11:00 +35°C° 0 mm 3 mps 754 mmHg 67%
    12:00 +36°C° 0 mm 3 mps 754 mmHg 62%
    13:00 +36°C° 0.1 mm 4 mps 753 mmHg 63%
    14:00 +36°C° 0.1 mm 4 mps 753 mmHg 64%
    15:00 +36°C° 0.1 mm 4 mps 752 mmHg 64%
    16:00 +35°C° 0.2 mm 4 mps 752 mmHg 69%
    17:00 +34°C° 0.2 mm 4 mps 752 mmHg 74%
    18:00 +33°C° 0.2 mm 4 mps 752 mmHg 78%
    19:00 +32°C° 0.1 mm 4 mps 753 mmHg 80%
    20:00 +30°C° 0.1 mm 4 mps 754 mmHg 82%
    21:00 +30°C° 0.1 mm 3 mps 754 mmHg 84%
    22:00 +29°C° 0 mm 3 mps 754 mmHg 85%
    23:00 +29°C° 0 mm 3 mps 754 mmHg 85%

    23 February, Friday

    Time Temperature Precipitation Wind Pressure Humidity
    00:00 +29°C° 0 mm 3 mps 754 mmHg 86%
    01:00 +29°C° 0 mm 3 mps 754 mmHg 86%
    02:00 +29°C° 0 mm 3 mps 754 mmHg 87%
    03:00 +29°C° 0 mm 4 mps 753 mmHg 88%
    04:00 +29°C° 0 mm 4 mps 754 mmHg 88%
    05:00 +29°C° 0 mm 4 mps 754 mmHg 89%
    06:00 +29°C° 0 mm 4 mps 754 mmHg 89%
    07:00 +30°C° 0 mm 4 mps 754 mmHg 84%
    08:00 +32°C° 0 mm 4 mps 755 mmHg 80%
    09:00 +34°C° 0 mm 4 mps 755 mmHg 75%
    10:00 +35°C° 0 mm 4 mps 755 mmHg 71%
    11:00 +36°C° 0 mm 4 mps 755 mmHg 66%
    12:00 +37°C° 0 mm 4 mps 754 mmHg 62%
    13:00 +37°C° 0.1 mm 4 mps 753 mmHg 62%
    14:00 +37°C° 0.1 mm 5 mps 753 mmHg 62%
    15:00 +37°C° 0.1 mm 5 mps 752 mmHg 62%
    16:00 +36°C° 0.2 mm 5 mps 752 mmHg 68%
    17:00 +34°C° 0.2 mm 5 mps 752 mmHg 74%
    18:00 +33°C° 0.2 mm 5 mps 752 mmHg 80%
    19:00 +33°C° 0 mm 4 mps 753 mmHg 82%
    20:00 +32°C° 0 mm 4 mps 754 mmHg 83%
    21:00 +30°C° 0 mm 4 mps 754 mmHg 85%
    22:00 +30°C° 0 mm 4 mps 754 mmHg 86%
    23:00 +30°C° 0 mm 4 mps 754 mmHg 87%

    24 February, Saturday

    Time Temperature Precipitation Wind Pressure Humidity
    00:00 +30°C° 0 mm 4 mps 754 mmHg 87%
    01:00 +30°C° 0 mm 4 mps 754 mmHg 88%
    02:00 +30°C° 0 mm 4 mps 753 mmHg 88%
    03:00 +30°C° 0 mm 4 mps 753 mmHg 88%
    04:00 +30°C° 0.5 mm 4 mps 753 mmHg 89%
    05:00 +29°C° 0.5 mm 4 mps 754 mmHg 90%
    06:00 +29°C° 0.5 mm 4 mps 754 mmHg 91%
    07:00 +30°C° 0 mm 4 mps 754 mmHg 86%
    08:00 +33°C° 0 mm 4 mps 755 mmHg 82%
    09:00 +34°C° 0 mm 5 mps 755 mmHg 78%
    10:00 +35°C° 0 mm 5 mps 755 mmHg 73%
    11:00 +36°C° 0 mm 5 mps 754 mmHg 68%
    12:00 +37°C° 0 mm 5 mps 754 mmHg 63%
    13:00 +37°C° 0 mm 5 mps 753 mmHg 63%
    14:00 +37°C° 0 mm 5 mps 753 mmHg 63%
    15:00 +37°C° 0 mm 5 mps 752 mmHg 63%
    16:00 +36°C° 0 mm 5 mps 752 mmHg 68%
    17:00 +35°C° 0 mm 5 mps 753 mmHg 73%
    18:00 +34°C° 0 mm 5 mps 753 mmHg 77%
    19:00 +33°C° 0.5 mm 4 mps 753 mmHg 81%
    20:00 +32°C° 0.5 mm 4 mps 754 mmHg 85%
    21:00 +30°C° 0.5 mm 3 mps 754 mmHg 89%
    22:00 +30°C° 0 mm 4 mps 754 mmHg 89%
    23:00 +30°C° 0 mm 4 mps 754 mmHg 90%

    25 February, Sunday

    Time Temperature Precipitation Wind Pressure Humidity
    00:00 +30°C° 0 mm 5 mps 753 mmHg 90%
    01:00 +30°C° 1 mm 5 mps 753 mmHg 90%
    02:00 +30°C° 1 mm 5 mps 753 mmHg 90%
    03:00 +30°C° 1 mm 5 mps 753 mmHg 90%
    04:00 +30°C° 0.1 mm 5 mps 753 mmHg 91%
    05:00 +30°C° 0.1 mm 5 mps 753 mmHg 91%
    06:00 +30°C° 0.1 mm 5 mps 753 mmHg 91%
    07:00 +30°C° 0.3 mm 5 mps 753 mmHg 87%
    08:00 +32°C° 0.3 mm 5 mps 754 mmHg 82%
    09:00 +33°C° 0.3 mm 5 mps 754 mmHg 78%
    10:00 +34°C° 0.1 mm 5 mps 754 mmHg 74%
    11:00 +35°C° 0.1 mm 5 mps 753 mmHg 70%
    12:00 +36°C° 0.1 mm 5 mps 753 mmHg 65%
    13:00 +36°C° 0.2 mm 5 mps 752 mmHg 65%
    14:00 +36°C° 0.2 mm 4 mps 752 mmHg 65%
    15:00 +36°C° 0.2 mm 4 mps 751 mmHg 65%
    16:00 +35°C° 0.1 mm 4 mps 752 mmHg 69%
    17:00 +34°C° 0.1 mm 3 mps 752 mmHg 74%
    18:00 +33°C° 0.1 mm 3 mps 752 mmHg 79%
    19:00 +33°C° 0.1 mm 3 mps 753 mmHg 81%
    20:00 +31°C° 0.1 mm 2 mps 753 mmHg 83%
    21:00 +31°C° 0.1 mm 2 mps 753 mmHg 85%
    22:00 +30°C° 0.3 mm 3 mps 753 mmHg 86%
    23:00 +30°C° 0.3 mm 3 mps 753 mmHg 87%
    Show more